Weather History for Gadsden, AL

Change the Weather History Date:

Wednesday, December 26, 2012

  Actual Average Record
Temperature  
Mean Temperature 43 °F -  
Max Temperature 53 °F 49 °F 71 °F (1942)
Min Temperature 33 °F 28 °F 12 °F (1935)
Degree Days  
Heating Degree Days 22    
Moisture  
Dew Point 33 °F    
Average Humidity 79    
Maximum Humidity 94    
Minimum Humidity 70    
Precipitation  
Precipitation 0.00 in - - ()
Sea Level Pressure  
Sea Level Pressure 29.79 in    
Wind  
Wind Speed 12 mph (West)    
Max Wind Speed 25 mph    
Max Gust Speed 37 mph    
Visibility 10 miles    
Events      
Averages and records for this station are not official NWS values.
T = Trace of Precipitation, MM = Missing Value Source: NWS Daily Summary

Daily Weather History Graph

Daily Weather History Graph

Search for Another Location

Airport:

Trip Planner

Search our weather history database for the weather conditions in past years. The results will help you decide how hot, cold, wet, or windy it might be!

Date:

Astronomy

Dec. 26, 2012 Rise Set
Actual Time 6:48 AM CST 4:42 PM CST
Civil Twilight 6:20 AM CST 5:10 PM CST
Nautical Twilight 5:49 AM CST 5:41 PM CST
Astronomical Twilight 5:18 AM CST 6:11 PM CST
Moon 3:34 PM CST (12/26) 5:12 AM CST (12/26)
Length of Visible Light 10h 49m
Length of Day
9h 54m
Waxing Gibbous, 97% of the Moon is Illuminated
Dec 26
Waxing Gibbous
Dec 28
Full
Jan 4
Last Quarter
Jan 11
New
Jan 18
First Quarter

Hourly Weather History & Observations

Time (CST) Temp. Windchill Dew Point Humidity Pressure Visibility Wind Dir Wind Speed Gust Speed Precip Events Conditions
12:15 AM 51.8 °F - 50.0 °F 94% 29.51 in 10.0 mi East 4.6 mph - N/A   Overcast
12:35 AM 51.8 °F - 50.0 °F 94% 29.49 in 10.0 mi NE 8.1 mph - N/A   Overcast
1:15 AM 51.8 °F - 50.0 °F 94% 29.47 in 10.0 mi ENE 4.6 mph - N/A   Overcast
1:35 AM 51.8 °F - 50.0 °F 94% 29.47 in 10.0 mi Calm Calm - N/A   Overcast
1:55 AM 51.8 °F - 50.0 °F 94% 29.48 in 10.0 mi Calm Calm - N/A   Overcast
2:15 AM 51.8 °F - 50.0 °F 94% 29.46 in 10.0 mi South 3.5 mph - N/A   Mostly Cloudy
2:35 AM 53.6 °F - 51.8 °F 94% 29.46 in 10.0 mi SSW 5.8 mph - N/A   Partly Cloudy
3:15 AM 53.6 °F - 50.0 °F 88% 29.48 in 10.0 mi WSW 25.3 mph 36.8 mph N/A   Mostly Cloudy
3:35 AM 50.0 °F - 42.8 °F 76% 29.49 in 10.0 mi WSW 17.3 mph 28.8 mph N/A   Overcast
3:55 AM 50.0 °F - 42.8 °F 76% 29.50 in 10.0 mi WSW 13.8 mph 19.6 mph N/A   Overcast
4:15 AM 48.2 °F - 41.0 °F 76% 29.50 in 10.0 mi WSW 10.4 mph 17.3 mph N/A   Mostly Cloudy
4:35 AM 48.2 °F - 41.0 °F 76% 29.51 in 10.0 mi SW 10.4 mph - N/A   Mostly Cloudy
4:55 AM 48.2 °F - 42.8 °F 82% 29.51 in 10.0 mi WSW 15.0 mph 25.3 mph N/A   Overcast
5:15 AM 44.6 °F 35.5 °F 37.4 °F 76% 29.54 in 10.0 mi WSW 25.3 mph 33.4 mph N/A   Overcast
5:35 AM 44.6 °F 37.4 °F 35.6 °F 71% 29.56 in 10.0 mi WSW 16.1 mph 32.2 mph N/A   Overcast
5:55 AM 42.8 °F 33.8 °F 35.6 °F 76% 29.56 in 10.0 mi WSW 21.9 mph 28.8 mph N/A   Overcast
6:15 AM 41.0 °F 32.2 °F 33.8 °F 76% 29.58 in 10.0 mi WSW 18.4 mph 34.5 mph N/A   Overcast
6:35 AM 41.0 °F 30.7 °F 32.0 °F 70% 29.60 in 10.0 mi WSW 25.3 mph 35.7 mph N/A   Overcast
6:55 AM 41.0 °F 30.7 °F 32.0 °F 70% 29.61 in 10.0 mi WSW 25.3 mph 32.2 mph N/A   Overcast
7:15 AM 39.2 °F 32.5 °F 33.8 °F 81% 29.62 in 10.0 mi SW 10.4 mph 19.6 mph N/A   Mostly Cloudy
7:35 AM 39.2 °F 30.5 °F 33.8 °F 81% 29.63 in 10.0 mi WSW 16.1 mph 24.2 mph N/A   Overcast
7:55 AM 39.2 °F 31.6 °F 33.8 °F 81% 29.65 in 10.0 mi WSW 12.7 mph 23.0 mph N/A   Overcast
8:15 AM 39.2 °F 29.8 °F 32.0 °F 75% 29.66 in 10.0 mi WSW 18.4 mph 23.0 mph N/A   Overcast
8:35 AM 37.4 °F 28.9 °F 32.0 °F 81% 29.67 in 10.0 mi WSW 13.8 mph 24.2 mph N/A   Overcast
8:55 AM 37.4 °F 29.8 °F 32.0 °F 81% 29.70 in 10.0 mi WSW 11.5 mph 18.4 mph N/A   Overcast
9:15 AM 37.4 °F 27.5 °F 32.0 °F 81% 29.71 in 10.0 mi WSW 18.4 mph 23.0 mph N/A   Overcast
9:35 AM 37.4 °F 26.9 °F 32.0 °F 81% 29.72 in 10.0 mi SW 20.7 mph 26.5 mph N/A   Overcast
9:55 AM 37.4 °F 26.6 °F 33.8 °F 87% 29.74 in 10.0 mi WSW 21.9 mph 26.5 mph N/A   Overcast
10:15 AM 37.4 °F 26.9 °F 32.0 °F 81% 29.75 in 10.0 mi West 20.7 mph 29.9 mph N/A   Overcast
10:35 AM 37.4 °F 27.2 °F 32.0 °F 81% 29.75 in 10.0 mi West 19.6 mph 28.8 mph N/A   Overcast
10:55 AM 37.4 °F 28.2 °F 30.2 °F 75% 29.76 in 10.0 mi West 16.1 mph 24.2 mph N/A   Overcast
11:15 AM 37.4 °F 27.5 °F 30.2 °F 75% 29.77 in 10.0 mi West 18.4 mph 26.5 mph N/A   Overcast
11:35 AM 37.4 °F 27.8 °F 30.2 °F 75% 29.78 in 10.0 mi West 17.3 mph 31.1 mph N/A   Overcast
11:55 AM 35.6 °F 25.9 °F 30.2 °F 81% 29.79 in 6.0 mi West 16.1 mph 27.6 mph N/A   Overcast
12:15 PM 35.6 °F 25.5 °F 30.2 °F 81% 29.79 in 10.0 mi West 17.3 mph 29.9 mph N/A   Overcast
12:35 PM 35.6 °F 25.5 °F 30.2 °F 81% 29.80 in 10.0 mi West 17.3 mph 23.0 mph N/A   Overcast
12:55 PM 35.6 °F 25.9 °F 30.2 °F 81% 29.82 in 10.0 mi West 16.1 mph 23.0 mph N/A   Overcast
1:15 PM 35.6 °F 24.8 °F 30.2 °F 81% 29.81 in 10.0 mi West 19.6 mph 26.5 mph N/A   Overcast
1:35 PM 35.6 °F 28.0 °F 30.2 °F 81% 29.83 in 10.0 mi West 10.4 mph 23.0 mph N/A   Overcast
1:55 PM 35.6 °F 26.2 °F 30.2 °F 81% 29.84 in 10.0 mi West 15.0 mph 25.3 mph N/A   Overcast
2:15 PM 35.6 °F 24.5 °F 30.2 °F 81% 29.85 in 10.0 mi West 20.7 mph 31.1 mph N/A   Overcast
2:35 PM 35.6 °F 24.8 °F 28.4 °F 75% 29.87 in 10.0 mi WNW 19.6 mph 27.6 mph N/A   Overcast
2:55 PM 35.6 °F 25.9 °F 28.4 °F 75% 29.88 in 10.0 mi West 16.1 mph 23.0 mph N/A   Overcast
3:15 PM 35.6 °F 25.9 °F 28.4 °F 75% 29.89 in 10.0 mi WNW 16.1 mph 27.6 mph N/A   Overcast
3:35 PM 35.6 °F 25.9 °F 28.4 °F 75% 29.90 in 10.0 mi WNW 16.1 mph 25.3 mph N/A   Overcast
3:55 PM 35.6 °F 26.6 °F 28.4 °F 75% 29.92 in 10.0 mi WNW 13.8 mph 21.9 mph N/A   Overcast
4:15 PM 35.6 °F 26.6 °F 28.4 °F 75% 29.93 in 10.0 mi WNW 13.8 mph 21.9 mph N/A   Overcast
4:35 PM 35.6 °F 24.8 °F 26.6 °F 70% 29.94 in 10.0 mi WNW 19.6 mph 25.3 mph N/A   Overcast
4:55 PM 35.6 °F 27.1 °F 26.6 °F 70% 29.96 in 10.0 mi WNW 12.7 mph 21.9 mph N/A   Overcast
5:15 PM 35.6 °F 25.5 °F 28.4 °F 75% 29.97 in 10.0 mi WNW 17.3 mph 28.8 mph N/A   Overcast
5:35 PM 35.6 °F 25.9 °F 28.4 °F 75% 29.98 in 10.0 mi WNW 16.1 mph 23.0 mph N/A   Overcast
5:55 PM 35.6 °F 26.2 °F 28.4 °F 75% 29.98 in 10.0 mi WNW 15.0 mph 21.9 mph N/A   Overcast
6:15 PM 35.6 °F 26.6 °F 26.6 °F 70% 30.01 in 10.0 mi WNW 13.8 mph 24.2 mph N/A   Overcast
6:35 PM 35.6 °F 26.2 °F 28.4 °F 75% 30.02 in 10.0 mi WNW 15.0 mph 19.6 mph N/A   Overcast
6:55 PM 33.8 °F 25.3 °F 28.4 °F 81% 30.01 in 10.0 mi West 11.5 mph 24.2 mph N/A   Overcast
7:15 PM 33.8 °F 24.3 °F 28.4 °F 81% 30.03 in 10.0 mi West 13.8 mph 21.9 mph N/A   Overcast
7:35 PM 33.8 °F 25.3 °F 28.4 °F 81% 30.04 in 10.0 mi WNW 11.5 mph 18.4 mph N/A   Overcast
7:55 PM 33.8 °F 25.8 °F 26.6 °F 75% 30.05 in 10.0 mi West 10.4 mph 20.7 mph N/A   Overcast
8:15 PM 33.8 °F 25.3 °F 26.6 °F 75% 30.05 in 10.0 mi West 11.5 mph 17.3 mph N/A   Overcast
8:35 PM 33.8 °F 24.8 °F 26.6 °F 75% 30.06 in 10.0 mi West 12.7 mph 19.6 mph N/A   Overcast
8:55 PM 33.8 °F 24.8 °F 28.4 °F 81% 30.06 in 10.0 mi WNW 12.7 mph 17.3 mph N/A   Overcast
9:15 PM 33.8 °F 24.8 °F 28.4 °F 81% 30.07 in 10.0 mi West 12.7 mph - N/A   Overcast
9:35 PM 33.8 °F 26.4 °F 28.4 °F 81% 30.07 in 10.0 mi West 9.2 mph - N/A   Overcast
9:55 PM 33.8 °F 26.4 °F 28.4 °F 81% 30.08 in 10.0 mi WNW 9.2 mph 16.1 mph N/A   Overcast
10:15 PM 35.6 °F 29.2 °F 28.4 °F 75% 30.09 in 10.0 mi NW 8.1 mph - N/A   Overcast
10:35 PM 35.6 °F 27.1 °F 26.6 °F 70% 30.10 in 10.0 mi NW 12.7 mph 19.6 mph N/A   Overcast
10:55 PM 35.6 °F 26.2 °F 26.6 °F 70% 30.10 in 10.0 mi NNW 15.0 mph 19.6 mph N/A   Overcast
11:15 PM 35.6 °F 28.0 °F 26.6 °F 70% 30.10 in 10.0 mi NW 10.4 mph - N/A   Overcast
11:35 PM 33.8 °F 24.3 °F 26.6 °F 75% 30.10 in 10.0 mi NW 13.8 mph - N/A   Overcast
11:55 PM 33.8 °F 28.6 °F 26.6 °F 75% 30.10 in 10.0 mi NW 5.8 mph - N/A   Overcast